Location: K�ln
(50.9455°N, 6.9544°E)
Time: 19:55:36
(UTC+01:00)

ISS - Pass Details

Date: 11 January 2018
Orbit: 401 x 407 km, 51.6° (Epoch: 17 January)

Event Time Altitude Azimuth Distance (km) Brightness Sun altitude
Exits shadow 05:42:11 27° 106° (ESE) 815 -1.7 -25.8°
Drops below altitude 10° 05:43:50 10° 105° (ESE) 1,465 0.0 -25.5°
Sets 05:45:55 0° 105° (ESE) 2,324 1.3 -25.2°
